This demonstration page uses our WeatherBlox Daily Observations layout. Learn more.

Left ArrowRight Arrow

Hourly Observations for February 4, 2016

Temp ( °F °C ) Dew Point ( °F °C ) Humidity (%) Winds ( mph kmh ) Pressure ( in mb ) Visibility ( mi km ) Precip ( " mm )
12:06 am 00:06 Cloudy with Light Rain 63 17.2 61 16.1 93 93 S 10 17 29.97 1015 N/A 0.00 0.03
12:59 am 00:59 Cloudy with Light Rain 63 17.2 61 16.1 93 93 S 9 15 29.96 1014 6 10 0.01 0.25
1:59 am 01:59 Cloudy with Light Rain 64 17.8 62 16.7 93 93 S 9 15 29.95 1014 8 13 0.03 0.76
2:59 am 02:59 Mostly Cloudy with Light Rain 64 17.8 62 16.7 93 93 S 12 19 29.93 1014 10 16 0.01 0.25
3:17 am 03:17 Cloudy 64 17.8 62 16.7 93 93 S 10 17 29.94 1014 10 16 0.00 0.03
3:59 am 03:59 Cloudy 65 18.3 62 16.7 90 90 S 9 15 29.95 1014 10 16 0.00 0.03
4:37 am 04:37 Cloudy 65 18.3 62 16.7 90 90 SSW 8 13 29.94 1014 10 16 0.00 0.03
4:59 am 04:59 Cloudy 65 18.3 62 16.7 90 90 SSW 8 13 29.96 1015 10 16 0.00 0.03
5:59 am 05:59 Cloudy 65 18.3 62 16.7 90 90 SSW 9 15 29.95 1014 10 16 0.00 0.00
6:59 am 06:59 Cloudy 65 18.3 62 16.7 90 90 SSW 9 15 29.96 1015 10 16 0.00 0.00
7:32 am 07:32 Cloudy 65 18.3 62 16.7 90 90 SSW 10 17 29.97 1015 10 16 0.00 0.00
7:59 am 07:59 Cloudy 65 18.3 62 16.7 90 90 SW 6 9 29.98 1015 8 13 0.00 0.00
8:59 am 08:59 Cloudy 65 18.3 62 16.7 90 90 SSW 7 11 30.00 1016 9 14 0.00 0.00
9:16 am 09:16 Cloudy with Light Rain 65 18.3 62 16.7 90 90 SSW 5 7 30.00 1016 2 3 0.01 0.25
9:24 am 09:24 Cloudy with Light Rain 65 18.3 62 16.7 90 90 SSW 5 7 30.00 1016 3 4 0.01 0.25
9:37 am 09:37 Cloudy with Mist and Fog 65 18.3 62 16.7 90 90 SSW 5 7 30.00 1016 4 6 0.01 0.25
9:44 am 09:44 Cloudy with Mist and Fog 65 18.3 63 17.2 93 93 SSW 3 6 30.00 1016 3 4 0.02 0.51
9:59 am 09:59 Cloudy with Drizzle 65 18.3 63 17.2 93 93 SSW 5 7 30.01 1016 3 5 0.02 0.51
10:09 am 10:09 Cloudy with Drizzle 65 18.3 63 17.2 93 93 SW 3 6 30.00 1016 2 3 0.00 0.03
10:16 am 10:16 Cloudy with Drizzle 65 18.3 63 17.2 93 93 WSW 3 6 30.00 1016 2 3 0.00 0.03
10:20 am 10:20 Cloudy with Light Rain 65 18.3 63 17.2 93 93 WSW 3 6 30.00 1016 1 2 0.00 0.03
10:27 am 10:27 Cloudy with Light Rain 65 18.3 63 17.2 93 93 WNW 5 7 30.00 1016 1 2 0.01 0.25
10:47 am 10:47 Cloudy with Light Rain 64 17.8 62 16.7 93 93 W 7 11 30.00 1016 1 2 0.06 1.52
10:59 am 10:59 Cloudy with Light Rain 54 12.2 52 11.1 93 93 NNE 23 37 30.03 1017 1 2 0.08 2.03
11:03 am 11:03 Cloudy with Light Rain 51 10.6 48 8.9 89 89 NNE 21 33 30.03 1017 1 2 0.01 0.25
11:08 am 11:08 Cloudy with Light Rain 50 10 47 8.3 89 89 N 22 35 30.03 1017 1 2 0.02 0.51
11:20 am 11:20 Cloudy with Light Rain 50 10 48 8.9 93 93 N 17 28 30.03 1017 1 2 0.06 1.52
11:36 am 11:36 Cloudy with Rain 49 9.4 47 8.3 93 93 N 15 24 30.06 1018 2 3 0.16 4.06
11:54 am 11:54 Cloudy with Rain 48 9 46 8 94 94 NNE 17 28 30.03 1017 2 3 0.33 8.38
11:59 am 11:59 Cloudy with Rain 49 9.4 46 7.8 90 90 NNE 14 22 30.03 1017 2 3 0.36 9.14
12:14 pm 12:14 Cloudy with Light Rain 48 8.9 45 7.2 89 89 NE 18 30 30.00 1016 4 6 0.03 0.76
12:59 pm 12:59 Cloudy with Light Rain 48 8.9 44 6.7 86 86 N 16 26 30.03 1017 7 11 0.04 1.02
1:20 pm 13:20 Cloudy with Light Rain 48 8.9 44 6.7 86 86 NNE 14 22 30.03 1017 2 3 0.02 0.51
1:43 pm 13:43 Cloudy with Light Rain 47 8.3 43 6.1 86 86 NNE 16 26 30.03 1017 3 5 0.09 2.29
1:59 pm 13:59 Cloudy with Light Rain 47 8.3 43 6.1 86 86 NNE 21 33 30.05 1018 2 3 0.14 3.56
2:06 pm 14:06 Cloudy with Rain 47 8.3 43 6.1 86 86 NNE 17 28 30.06 1018 3 5 0.02 0.51
2:59 pm 14:59 Cloudy with Light Rain 46 7.8 43 6.1 89 89 NNE 17 28 30.02 1017 3 5 0.04 1.02
3:53 pm 15:53 Cloudy with Rain 45 7 43 6 93 93 NNE 15 24 30.03 1017 2 2 0.11 2.79
3:59 pm 15:59 Cloudy with Rain 45 7.2 42 5.6 90 90 N 17 28 30.04 1017 3 4 0.12 3.05
4:32 pm 16:32 Cloudy with Light Rain 45 7.2 42 5.6 90 90 NNE 15 24 30.03 1017 4 6 0.07 1.78
4:49 pm 16:49 Cloudy with Light Rain 45 7.2 42 5.6 90 90 N 16 26 30.06 1018 3 5 0.11 2.79
4:59 pm 16:59 Cloudy with Light Rain 45 7.2 42 5.6 90 90 N 17 28 30.04 1017 3 5 0.13 3.30
5:18 pm 17:18 Cloudy with Light Rain 45 7.2 42 5.6 90 90 N 14 22 30.06 1018 3 5 0.01 0.25
5:29 pm 17:29 Cloudy with Light Rain 45 7.2 42 5.6 90 90 N 15 24 30.06 1018 3 5 0.01 0.25
5:59 pm 17:59 Cloudy with Drizzle 45 7.2 42 5.6 90 90 N 12 19 30.07 1018 5 8 0.01 0.25
6:33 pm 18:33 Cloudy with Light Rain 45 7.2 42 5.6 90 90 NNE 20 31 30.06 1018 4 6 0.02 0.51
6:59 pm 18:59 Cloudy with Mist and Fog 44 6.7 42 5.6 93 93 NNE 15 24 30.05 1018 5 8 0.02 0.51
7:59 pm 19:59 Cloudy with Light Rain 44 6.7 42 5.6 93 93 NNE 16 26 30.05 1018 5 8 0.04 1.02
8:55 pm 20:55 Cloudy with Light Rain 43 6 39 4 87 87 N 17 28 30.09 1019 3 4 0.03 0.76
8:59 pm 20:59 Cloudy with Light Rain 43 6.1 40 4.4 89 89 N 16 26 30.08 1019 3 4 0.03 0.76
9:47 pm 21:47 Cloudy with Mist and Fog 42 5.6 39 3.9 89 89 N 18 30 30.06 1018 3 5 0.01 0.25
9:59 pm 21:59 Cloudy with Mist and Fog 42 5.6 40 4.4 92 92 N 16 26 30.06 1018 4 6 0.01 0.25
10:32 pm 22:32 Cloudy with Light Rain 42 5.6 39 3.9 89 89 NNE 21 33 30.09 1019 3 4 0.01 0.25
10:59 pm 22:59 Cloudy with Light Rain 41 5 38 3.3 89 89 NNE 23 37 30.07 1018 3 4 0.01 0.25
11:11 pm 23:11 Cloudy with Mist and Fog 42 5.6 38 3.3 85 85 N 21 33 30.06 1018 5 8 0.01 0.25
11:59 pm 23:59 Cloudy 42 5.6 38 3.3 85 85 N 20 31 30.03 1017 7 11 0.01 0.25

Powered by AerisWeather